When you browse on this site, cookies collect data to enhance your experience and personalize the content and advertising you see.
Visit our Privacy Policy to learn more. By continuing to use the site, you agree to this use of cookies and data.
  • In Hungary
  • List of Countries
  • For 7 days
  • Water Temperature
  • Satellite Maps
  • Weather Map
  • News
  • Weather Widgets
  • user-avatar
    Login

    Hourly Weather Taormina

    Today, 26 June, Wednesday

    Time Temperature Precipitation Wind Pressure Humidity
    00:00 +26°C° 0 mm 3 mps 758 mmHg 67%
    01:00 +26°C° 0 mm 2 mps 757 mmHg 70%
    02:00 +25°C° 0 mm 2 mps 757 mmHg 71%
    03:00 +25°C° 0 mm 2 mps 757 mmHg 71%
    04:00 +25°C° 0 mm 2 mps 757 mmHg 72%
    05:00 +27°C° 0 mm 2 mps 757 mmHg 66%
    06:00 +28°C° 0 mm 2 mps 757 mmHg 61%
    07:00 +30°C° 0 mm 2 mps 757 mmHg 53%
    08:00 +31°C° 0 mm 2 mps 758 mmHg 49%
    09:00 +32°C° 0 mm 2 mps 758 mmHg 45%
    10:00 +34°C° 0 mm 2 mps 758 mmHg 41%
    11:00 +35°C° 0 mm 2 mps 758 mmHg 40%
    12:00 +35°C° 0 mm 2 mps 758 mmHg 39%
    13:00 +35°C° 0 mm 2 mps 758 mmHg 39%
    14:00 +35°C° 0 mm 2 mps 758 mmHg 41%
    15:00 +34°C° 0 mm 2 mps 757 mmHg 43%
    16:00 +32°C° 0 mm 1 mps 757 mmHg 46%
    17:00 +31°C° 0 mm 1 mps 757 mmHg 51%
    18:00 +30°C° 0 mm 1 mps 757 mmHg 57%
    19:00 +28°C° 0 mm 1 mps 757 mmHg 62%
    20:00 +28°C° 0 mm 1 mps 757 mmHg 62%
    21:00 +27°C° 0 mm 2 mps 757 mmHg 62%
    22:00 +26°C° 0 mm 2 mps 757 mmHg 63%
    23:00 +26°C° 0 mm 2 mps 757 mmHg 62%

    Tomorrow, 27 June, Thursday

    Time Temperature Precipitation Wind Pressure Humidity
    00:00 +26°C° 0 mm 2 mps 757 mmHg 61%
    01:00 +26°C° 0 mm 2 mps 757 mmHg 61%
    02:00 +26°C° 0 mm 2 mps 757 mmHg 62%
    03:00 +26°C° 0 mm 2 mps 757 mmHg 64%
    04:00 +25°C° 0 mm 2 mps 756 mmHg 66%
    05:00 +27°C° 0 mm 2 mps 756 mmHg 62%
    06:00 +28°C° 0 mm 2 mps 757 mmHg 58%
    07:00 +30°C° 0 mm 2 mps 757 mmHg 54%
    08:00 +31°C° 0 mm 2 mps 757 mmHg 50%
    09:00 +32°C° 0 mm 2 mps 757 mmHg 46%
    10:00 +34°C° 0 mm 2 mps 757 mmHg 42%
    11:00 +34°C° 0.1 mm 2 mps 756 mmHg 42%
    12:00 +34°C° 0.1 mm 2 mps 756 mmHg 43%
    13:00 +33°C° 0.1 mm 1 mps 756 mmHg 44%
    14:00 +33°C° 0.3 mm 1 mps 756 mmHg 47%
    15:00 +32°C° 0.3 mm 1 mps 756 mmHg 49%
    16:00 +32°C° 0.3 mm 1 mps 755 mmHg 52%
    17:00 +31°C° 0.1 mm 1 mps 755 mmHg 56%
    18:00 +30°C° 0.1 mm 1 mps 755 mmHg 61%
    19:00 +28°C° 0.1 mm 1 mps 755 mmHg 65%
    20:00 +28°C° 0 mm 1 mps 755 mmHg 66%
    21:00 +27°C° 0 mm 1 mps 755 mmHg 66%
    22:00 +27°C° 0 mm 2 mps 755 mmHg 67%
    23:00 +26°C° 0 mm 2 mps 755 mmHg 66%

    Day after tomorrow, 28 June, Friday

    Time Temperature Precipitation Wind Pressure Humidity
    00:00 +26°C° 0 mm 2 mps 755 mmHg 66%
    01:00 +26°C° 0 mm 3 mps 754 mmHg 65%
    02:00 +26°C° 0 mm 3 mps 754 mmHg 65%
    03:00 +26°C° 0 mm 3 mps 754 mmHg 66%
    04:00 +26°C° 0 mm 3 mps 754 mmHg 66%
    05:00 +27°C° 0 mm 3 mps 754 mmHg 62%
    06:00 +29°C° 0 mm 3 mps 754 mmHg 58%
    07:00 +30°C° 0 mm 3 mps 754 mmHg 54%
    08:00 +31°C° 0 mm 3 mps 754 mmHg 49%
    09:00 +34°C° 0 mm 3 mps 754 mmHg 44%
    10:00 +35°C° 0 mm 3 mps 754 mmHg 39%
    11:00 +35°C° 0 mm 3 mps 753 mmHg 38%
    12:00 +36°C° 0 mm 3 mps 753 mmHg 37%
    13:00 +36°C° 0 mm 3 mps 753 mmHg 36%
    14:00 +36°C° 0 mm 2 mps 753 mmHg 38%
    15:00 +35°C° 0 mm 2 mps 753 mmHg 39%
    16:00 +35°C° 0 mm 2 mps 753 mmHg 41%
    17:00 +32°C° 0 mm 2 mps 753 mmHg 48%
    18:00 +30°C° 0 mm 2 mps 753 mmHg 55%
    19:00 +29°C° 0 mm 2 mps 753 mmHg 61%
    20:00 +28°C° 0 mm 2 mps 753 mmHg 61%
    21:00 +28°C° 0 mm 3 mps 753 mmHg 61%
    22:00 +27°C° 0 mm 3 mps 753 mmHg 61%
    23:00 +27°C° 0 mm 3 mps 753 mmHg 58%

    29 June, Saturday

    Time Temperature Precipitation Wind Pressure Humidity
    00:00 +27°C° 0 mm 3 mps 753 mmHg 54%
    01:00 +27°C° 0 mm 3 mps 753 mmHg 51%
    02:00 +27°C° 0 mm 3 mps 753 mmHg 52%
    03:00 +27°C° 0 mm 3 mps 753 mmHg 53%
    04:00 +27°C° 0 mm 3 mps 752 mmHg 54%
    05:00 +28°C° 0 mm 3 mps 753 mmHg 51%
    06:00 +30°C° 0 mm 2 mps 753 mmHg 49%
    07:00 +31°C° 0 mm 2 mps 753 mmHg 47%
    08:00 +32°C° 0 mm 2 mps 753 mmHg 45%
    09:00 +34°C° 0 mm 3 mps 753 mmHg 42%
    10:00 +35°C° 0 mm 3 mps 754 mmHg 40%
    11:00 +35°C° 0 mm 3 mps 753 mmHg 40%
    12:00 +35°C° 0 mm 3 mps 753 mmHg 40%
    13:00 +35°C° 0 mm 3 mps 753 mmHg 40%
    14:00 +35°C° 0 mm 3 mps 753 mmHg 43%
    15:00 +34°C° 0 mm 3 mps 753 mmHg 45%
    16:00 +33°C° 0 mm 3 mps 753 mmHg 48%
    17:00 +31°C° 0 mm 2 mps 754 mmHg 56%
    18:00 +29°C° 0 mm 1 mps 754 mmHg 63%
    19:00 +27°C° 0 mm 1 mps 754 mmHg 69%
    20:00 +26°C° 0 mm 1 mps 754 mmHg 71%
    21:00 +25°C° 0 mm 1 mps 755 mmHg 73%
    22:00 +25°C° 0 mm 1 mps 755 mmHg 75%
    23:00 +24°C° 0 mm 1 mps 755 mmHg 74%

    30 June, Sunday

    Time Temperature Precipitation Wind Pressure Humidity
    00:00 +24°C° 0 mm 1 mps 755 mmHg 72%
    01:00 +24°C° 0 mm 1 mps 755 mmHg 70%
    02:00 +24°C° 0 mm 1 mps 755 mmHg 69%
    03:00 +24°C° 0 mm 1 mps 755 mmHg 67%
    04:00 +24°C° 0 mm 1 mps 754 mmHg 65%
    05:00 +25°C° 0 mm 1 mps 755 mmHg 61%
    06:00 +27°C° 0 mm 1 mps 755 mmHg 56%
    07:00 +28°C° 0 mm 1 mps 756 mmHg 51%
    08:00 +30°C° 0 mm 1 mps 756 mmHg 46%
    09:00 +31°C° 0 mm 2 mps 756 mmHg 42%
    10:00 +32°C° 0 mm 2 mps 756 mmHg 37%
    11:00 +34°C° 0 mm 2 mps 756 mmHg 37%
    12:00 +34°C° 0 mm 2 mps 756 mmHg 36%
    13:00 +35°C° 0 mm 3 mps 756 mmHg 35%
    14:00 +34°C° 0 mm 2 mps 756 mmHg 38%
    15:00 +34°C° 0 mm 2 mps 756 mmHg 40%
    16:00 +32°C° 0 mm 2 mps 756 mmHg 43%
    17:00 +30°C° 0 mm 1 mps 756 mmHg 50%
    18:00 +29°C° 0 mm 1 mps 756 mmHg 57%
    19:00 +27°C° 0 mm 1 mps 756 mmHg 63%
    20:00 +26°C° 0 mm 1 mps 757 mmHg 66%
    21:00 +26°C° 0 mm 1 mps 757 mmHg 68%
    22:00 +25°C° 0 mm 1 mps 757 mmHg 70%
    23:00 +25°C° 0 mm 1 mps 757 mmHg 70%

    1 July, Monday

    Time Temperature Precipitation Wind Pressure Humidity
    00:00 +25°C° 0 mm 1 mps 757 mmHg 69%
    01:00 +25°C° 0 mm 1 mps 757 mmHg 69%
    02:00 +24°C° 0 mm 1 mps 757 mmHg 69%
    03:00 +24°C° 0 mm 1 mps 757 mmHg 68%
    04:00 +24°C° 0 mm 1 mps 757 mmHg 68%
    05:00 +26°C° 0 mm 1 mps 757 mmHg 63%
    06:00 +25°C° 0 mm 0 mps 757 mmHg 57%
    07:00 +27°C° 0 mm 0 mps 757 mmHg 52%
    08:00 +30°C° 0 mm 1 mps 757 mmHg 49%
    09:00 +31°C° 0 mm 1 mps 757 mmHg 47%
    10:00 +32°C° 0 mm 2 mps 757 mmHg 44%
    11:00 +32°C° 0 mm 2 mps 757 mmHg 44%
    12:00 +33°C° 0 mm 3 mps 757 mmHg 44%
    13:00 +34°C° 0 mm 3 mps 757 mmHg 44%
    14:00 +33°C° 0 mm 3 mps 757 mmHg 47%
    15:00 +32°C° 0 mm 2 mps 757 mmHg 50%
    16:00 +31°C° 0 mm 2 mps 756 mmHg 52%
    17:00 +30°C° 0 mm 2 mps 756 mmHg 60%
    18:00 +28°C° 0 mm 1 mps 756 mmHg 67%
    19:00 +25°C° 0 mm 0 mps 756 mmHg 74%
    20:00 +24°C° 0 mm 0 mps 757 mmHg 76%
    21:00 +23°C° 0 mm 0 mps 757 mmHg 79%
    22:00 +23°C° 0 mm 0 mps 757 mmHg 81%
    23:00 +23°C° 0 mm 0 mps 757 mmHg 80%
    Show more